sat.trackr.live / text

‹ back to catalog

STARLINK-35458

NORAD 65925 · 2025-225R

PAYLOAD ACTIVE UNKNOWN

§ Identity

Operator
Country
US
Launch date
2025-10-08
Launch site
AFWTR
Launch vehicle
Mass (kg)
RCS (m²)

Purposes: comms

External: N2YO · Heavens-Above · Gunter

§ Orbital elements

Epoch: 2026-05-24T18:58:23.837952Z

Period
94.11 min
Inclination
53.1587°
Eccentricity
0.0001269
Mean motion
15.30201912 rev/d
Perigee alt
474.3 km
Apogee alt
476.1 km
Semi-major
6,853.3 km
B*
2.7680e-4
RAAN
171.8967°
Arg perigee
83.0826°
Mean anomaly
277.0319°
Rev number
3,606

§ Raw data

STARLINK-354581 65925U 25225R   26144.79055368  .00007848  00000+0  27680-3 0  99952 65925  53.1587 171.8967 0001269  83.0826 277.0319 15.30201912 36060

JSON: /api/v1/satellites/65925 · /tle

For live sub-satellite position, see the globe view (requires WebGL).

§ Visibility from observer

Set your observer location to see the next 7 days of passes ≥ 10°. The values pass through the URL so the page stays shareable.

No JS? Fill the form by hand. The geolocation button needs JavaScript.